Regional Weather Roundup
Issued by NWS Upton, NY

Current Version | Previous Version | Text Only | Print | Product List | Glossary On
Versions: 1 2 3 4 5 6 7 8 9 10 11 12 13 14 15 16 17 18 19 20 21 22 23 24 25 26 27 28 29 30 31 32 33 34 35 36 37 38 39 40 41 42 43 44 45 46 47 48 49 50
000 ASUS41 KOKX 232305 RWROKX REGIONAL WEATHER ROUNDUP NATIONAL WEATHER SERVICE NEW YORK NY 700 PM EDT TUE SEP 23 2014 NOTE: "FAIR" INDICATES FEW OR NO CLOUDS BELOW 12,000 FEET WITH NO SIGNIFICANT WEATHER AND/OR OBSTRUCTIONS TO VISIBILITY. NYZ071-072-176-178-NJZ106-104-240000- NEW YORK CITY METRO AREA CITY SKY/WX TMP DP RH WIND PRES REMARKS CENTRAL PARK CLEAR 68 43 40 CALM 30.34R LAGUARDIA APRT PTCLDY 68 48 48 S10 30.31R KENNEDY INTL MOCLDY 64 51 62 S6 30.33R NEWARK/LIBERTY PTCLDY 68 50 52 S7 30.31R BRNX BOT. GARD N/A 66 46 48 E2 30.33R TETERBORO CLEAR 67 46 47 S7 30.30R $$ NYZ177-179-078>081-240000- LONG ISLAND NEW YORK CITY SKY/WX TMP DP RH WIND PRES REMARKS FARMINGDALE PTCLDY 65 49 56 SW6 30.33R ISLIP MOCLDY 63 49 60 SW3 30.31S SHIRLEY PTCLDY 60 49 66 CALM 30.33R WESTHAMPTON PTCLDY 61 49 64 CALM 30.34R MONTAUK POINT N/A 62 51 67 CALM 30.35R $$ NYZ052-065-067-240000- HUDSON VALLEY CITY SKY/WX TMP DP RH WIND PRES REMARKS WHITE PLAINS CLEAR 60 49 66 CALM 30.32R NEWBURGH CLEAR 70 48 46 CALM 30.32 MONTGOMERY CLEAR 64 50 60 W3 30.31R POUGHKEEPSIE CLEAR 64 49 57 CALM 30.31R ALBANY MOCLDY 65 48 54 NW8 30.34R $$ NJZ001-105-106-008-010-013-015-019>022-104-240000- NEW JERSEY CITY SKY/WX TMP DP RH WIND PRES REMARKS NEWARK/LIBERTY PTCLDY 68 50 52 S7 30.31R TETERBORO CLEAR 67 46 47 S7 30.30R CALDWELL CLEAR 67 45 45 CALM 30.31R MORRISTOWN PTCLDY 66 50 55 CALM 30.10 SOMERVILLE CLEAR 62 51 67 CALM 30.30R LINDEN FAIR 73 50 45 S6 30.33R SUSSEX CLEAR 64 51 62 CALM 30.32R ANDOVER N/A 60 51 72 CALM 30.33R TRENTON CLEAR 66 43 43 S5 30.32R MILLVILLE PTCLDY 59 51 75 CALM 30.34R ATLANTIC CITY MOCLDY 59 50 72 E3 30.35R WRIGHTSTOWN PTCLDY 62 52 71 SE7 30.31R TOMS RIVER MOCLDY 61 48 63 CALM 30.35R BELMAR MOCLDY 63 46 55 S3 30.33S $$ PAZ047>061-062-071-240000- EASTERN PENNSYLVANIA CITY SKY/WX TMP DP RH WIND PRES REMARKS PHILADELPHIA MOCLDY 68 46 45 S7 30.34R ALLENTOWN CLEAR 67 43 41 CALM 30.32R SCRANTON CLEAR 66 48 52 N5 30.34R $$ CTZ002-004>006-009-010-012-RIZ004-006-007-MAZ004-011-015-240000- SOUTHERN NEW ENGLAND IN CT CITY SKY/WX TMP DP RH WIND PRES REMARKS BRADLEY INTL PTCLDY 64 51 62 NW3 30.32R HARTFORD CLEAR 67 46 47 SW7 30.32R DANBURY CLEAR 60 50 69 CALM 30.34R WTRBRY/OXFORD PTCLDY 61 46 59 CALM 30.33S BRIDGEPORT CLEAR 67 49 52 CALM 30.32R MERIDEN CLEAR 61 51 70 CALM 30.33R NEW HAVEN PTCLDY 65 51 60 CALM 30.32R CHESTER FAIR 61 54 77 CALM 30.34R GROTON CLEAR 60 52 74 W5 30.32R WILLIMANTIC CLEAR 65 47 52 CALM 30.33R IN RI CITY SKY/WX TMP DP RH WIND PRES REMARKS PROVIDENCE MOCLDY 66 46 48 W6 30.32R BLOCK ISLAND PTCLDY 61 48 63 SW5 30.33S WESTERLY PTCLDY 63 49 60 CALM 30.33R IN MA CITY SKY/WX TMP DP RH WIND PRES REMARKS BOSTON PTCLDY 67 45 45 W10 30.31R WORCESTER CLEAR 60 48 64 CALM 30.33R WESTFIELD CLEAR 61 50 67 CALM 30.33R PROVINCETOWN PTCLDY 59 48 67 S9 30.33R NANTUCKET CLEAR 60 46 59 NW3 30.33R $$ ANZ330-335-338-340-345-350-353-355-240000- COASTAL MARINE OBSERVATIONS STATION/POSITION TIME SKY/WX TEMP WIND PRES VSBY WAVE AIR SEA DIR/SP/G HT/PER (UTC) (F) (DEG/KT/KT) (MB) (MI) (FT/S) NY HARB ENTRANCE 2300 64 70 190/ 10/ 12 1027.1 2/ 8 4S FIRE IS 2300 70 N/A 2/ 8 20S FIRE ISLAND 2300 63 68 190/ 2/ 4 1027.4 2/ 7 23SW MTP 2300 N/A 2/ 8 HUDSON CANYON 2300 62 71 30/ 6/ 8 1027.1 2/ 9 EXECUTION ROCKS 2300 69 70 190/ 6/ 8 N/A WESTERN LI SOUND 2300 69 170/ 4/ 6 N/A 0 CENTRAL LI SOUND 2200 65 70 230/ 6/ 8 N/A 0 EASTERN LI SOUND 2200 66 68 250/ 8/ 10 N/A ROBBINS REEF 2300 65 170/ 13/ 14 1025.3 $$ >>>>>>>>>>>>>>>>>>>>>>>>>>>> KEY <<<<<<<<<<<<<<<<<<<<<<<<<<< > < > SKY/WX - SKY CONDITION/PRESENT WEATHER < > TMP - TEMPERATURE IN FAHRENHEIT < > DP - DEWPOINT IN FAHRENHEIT < > RH - RELATIVE HUMIDITY IN PERCENT < > WIND - DIRECTION AND SPEED IN MPH < > PRES - MEAN SEA LEVEL PRESSURE IN INCHES OF HG < > WCI - WIND CHILL INDEX < > VSB - VISIBILITY IN MILES < > HX - HEAT INDEX < > TC - TEMPERATURE IN CELSIUS < > VRB - VARIABLE WIND DIRECTION < > < >>>>>>>>>>>>>>>>>>>>>>>>>>>> KEY <<<<<<<<<<<<<<<<<<<<<<<<<<<

USA.gov is the U.S. government's official web portal to all federal, state and local government web resources and services.